HAMMONTON - NJ NJ-MESONET current weather conditions

sailwx.info

Wind from 210 at 4 knots gusting 7

Air temperature 27.8° C
Dewpoint 23.3° C

Last reported at 2020-Jul-11 14:05 UTC.
Time now 2020-Jul-11 14:53 UTC

Location: N 39°38' W 074°46'.
View on Google Maps.

See reports from other nearby stations

  
Tides and Currents Weather Stations Pressure Air Temp Water Temp Dewpoint Dewpoint Depression Visibility Wind Speed Wind Dir Waves Ship Positions
date/time (UTC)wind fromknots sea level pressurealtimeterstation pressurevisibilityair tempwater tempwave heightnotes
2020-Jul-11 14:05 210 4 gusting 7 27.8
2020-Jul-11 14:00 235 3 gusting 9 27.8
2020-Jul-11 13:55 159 2 gusting 9 27.8
2020-Jul-11 13:50 222 4 gusting 6 27.8
2020-Jul-11 13:45 208 2 gusting 7 27.8
2020-Jul-11 13:40 166 3 gusting 6 27.8
2020-Jul-11 13:35 193 27.2
2020-Jul-11 13:30 193 1 gusting 6 26.7
2020-Jul-11 13:25 236 0 gusting 4 26.7
2020-Jul-11 13:20 219 3 gusting 6 26.7
2020-Jul-11 13:15 206 5 gusting 7 26.7
2020-Jul-11 13:10 208 1 gusting 5 26.7
2020-Jul-11 13:05 225 2 gusting 6 26.1
2020-Jul-11 13:00 236 4 gusting 6 26.7
2020-Jul-11 12:55 228 1 gusting 6 26.7
2020-Jul-11 12:50 252 5 gusting 10 26.7
2020-Jul-11 12:45 206 4 gusting 9 26.7
2020-Jul-11 12:40 222 3 gusting 8 26.7
2020-Jul-11 12:35 241 2 gusting 9 26.1
2020-Jul-11 12:30 232 4 gusting 7 26.1
2020-Jul-11 12:25 284 1 gusting 9 26.7
2020-Jul-11 12:20 250 4 gusting 9 26.1
2020-Jul-11 12:15 212 2 gusting 9 26.1
2020-Jul-11 12:10 256 4 gusting 5 26.1
2020-Jul-11 12:05 181 25.6
2020-Jul-11 12:00 233 1 gusting 4 25.6
2020-Jul-11 11:55 231 0 gusting 5 25.0
2020-Jul-11 11:50 192 3 gusting 5 25.0
2020-Jul-11 11:45 209 25.0
2020-Jul-11 11:40 215 2 gusting 4 25.0
2020-Jul-11 11:35 193 3 gusting 6 24.4
2020-Jul-11 11:30 198 1 gusting 6 24.4
2020-Jul-11 11:25 238 3 gusting 6 23.9
2020-Jul-11 11:20 188 1 gusting 5 23.9
2020-Jul-11 11:15 206 23.9
2020-Jul-11 11:10 223 4 gusting 5 23.9
2020-Jul-11 11:05 224 3 gusting 6 23.9
2020-Jul-11 11:00 211 23.9
2020-Jul-11 10:55 168 23.9
2020-Jul-11 10:50 260 23.3
2020-Jul-11 10:45 230 2 gusting 5 23.3
2020-Jul-11 10:40 224 3 gusting 4 23.3
2020-Jul-11 10:35 215 1 gusting 6 23.3
2020-Jul-11 10:30 230 0 gusting 4 23.3
2020-Jul-11 10:25 221 23.3
2020-Jul-11 10:20 215 23.3
2020-Jul-11 10:15 219 23.3
2020-Jul-11 10:10 230 23.3
2020-Jul-11 10:05 228 23.3
2020-Jul-11 10:00 190 2 gusting 5 23.3
2020-Jul-11 09:55 208 3 gusting 5 23.3
2020-Jul-11 09:50 207 0 gusting 6 23.3
2020-Jul-11 09:45 195 2 gusting 5 22.8
2020-Jul-11 09:40 188 1 gusting 5 23.3
2020-Jul-11 09:35 195 2 gusting 4 23.3
2020-Jul-11 09:30 208 1 gusting 5 22.8
2020-Jul-11 09:25 225 1 gusting 6 22.8
2020-Jul-11 09:20 206 4 gusting 6 22.8
2020-Jul-11 09:15 213 22.8
2020-Jul-11 09:10 199 22.8
2020-Jul-11 09:05 183 0 gusting 4 22.8
2020-Jul-11 09:00 189 22.8
2020-Jul-11 08:55 206 22.8
2020-Jul-11 08:50 209 22.8
2020-Jul-11 08:45 188 22.8
2020-Jul-11 08:40 203 22.2
2020-Jul-11 08:35 212 22.2
2020-Jul-11 08:30 168 22.2
2020-Jul-11 08:25 168 22.2
2020-Jul-11 08:20 168 22.2
2020-Jul-11 08:15 168 22.2
2020-Jul-11 08:10 232 22.2
2020-Jul-11 08:05 232 22.2
2020-Jul-11 08:00 230 22.2
2020-Jul-11 07:55 245 22.2
2020-Jul-11 07:50 232 22.2
2020-Jul-11 07:45 232 22.2
2020-Jul-11 07:40 153 22.2
2020-Jul-11 07:35 219 22.2
2020-Jul-11 07:30 147 22.2
2020-Jul-11 07:25 215 22.2
2020-Jul-11 07:20 210 21.7
2020-Jul-11 07:15 195 21.7
2020-Jul-11 07:10 072 21.7
2020-Jul-11 07:05 200 21.7
2020-Jul-11 07:00 200 21.7
2020-Jul-11 06:55 200 21.7
2020-Jul-11 06:50 200 21.7
2020-Jul-11 06:45 200 21.7
2020-Jul-11 06:40 200 21.7
2020-Jul-11 06:35 200 21.7
2020-Jul-11 06:30 200 21.7
2020-Jul-11 06:25 200 22.2
2020-Jul-11 06:20 198 21.7
2020-Jul-11 06:15 189 21.7
2020-Jul-11 06:10 190 21.7
2020-Jul-11 06:05 177 22.2
2020-Jul-11 06:00 177 22.2
2020-Jul-11 05:55 212 22.2
2020-Jul-11 05:50 187 22.2
2020-Jul-11 05:45 202 22.2
2020-Jul-11 05:40 219 22.8
2020-Jul-11 05:35 210 22.8
2020-Jul-11 05:30 242 1 gusting 4 22.8
2020-Jul-11 05:25 225 2 gusting 5 22.8
2020-Jul-11 05:20 224 4 gusting 5 22.8
2020-Jul-11 05:15 225 2 gusting 5 22.8
2020-Jul-11 05:10 236 2 gusting 5 22.8
2020-Jul-11 05:05 234 1 gusting 5 22.8
2020-Jul-11 05:00 222 4 gusting 6 22.8
2020-Jul-11 04:55 235 1 gusting 6 22.8
2020-Jul-11 04:50 224 5 gusting 6 22.8
2020-Jul-11 04:45 234 1 gusting 6 22.8
2020-Jul-11 04:40 244 4 gusting 7 22.8
2020-Jul-11 04:35 198 6 gusting 7 22.8
2020-Jul-11 04:30 215 1 gusting 6 22.8
2020-Jul-11 04:25 220 4 gusting 9 22.8
2020-Jul-11 04:20 255 3 gusting 9 22.8
2020-Jul-11 04:15 232 1 gusting 9 22.8
2020-Jul-11 04:10 220 5 gusting 6 22.8
2020-Jul-11 04:05 237 4 gusting 6 22.8
2020-Jul-11 04:00 209 2 gusting 6 22.8
2020-Jul-11 03:55 208 6 gusting 9 22.8
2020-Jul-11 03:50 225 3 gusting 7 22.8
2020-Jul-11 03:45 198 3 gusting 8 22.8
2020-Jul-11 03:40 256 4 gusting 8 23.3
2020-Jul-11 03:35 224 4 gusting 9 23.3
2020-Jul-11 03:30 230 9 gusting 9 23.3
2020-Jul-11 03:25 225 3 gusting 9 23.3
2020-Jul-11 03:20 228 4 gusting 14 23.3
2020-Jul-11 03:15 211 3 gusting 11 23.3
2020-Jul-11 03:10 210 3 gusting 9 22.8
2020-Jul-11 03:05 226 4 gusting 7 22.8
2020-Jul-11 03:00 211 6 gusting 9 22.8
2020-Jul-11 02:55 197 4 gusting 9 22.8
2020-Jul-11 02:50 220 4 gusting 7 22.8
2020-Jul-11 02:45 237 3 gusting 8 22.8
2020-Jul-11 02:40 286 5 gusting 6 22.8
2020-Jul-11 02:35 243 2 gusting 13 22.8
2020-Jul-11 02:30 237 6 gusting 12 22.8
2020-Jul-11 02:25 176 5 gusting 9 22.8
2020-Jul-11 02:20 294 6 gusting 10 22.2
2020-Jul-11 02:15 224 8 gusting 13 22.2
2020-Jul-11 02:10 262 8 gusting 12 22.2
2020-Jul-11 02:05 230 3 gusting 11 22.8
2020-Jul-11 02:00 256 6 gusting 12 22.8
2020-Jul-11 01:55 233 4 gusting 13 22.8
2020-Jul-11 01:50 243 7 gusting 12 22.8
2020-Jul-11 01:45 254 8 gusting 10 22.8
2020-Jul-11 01:40 291 3 gusting 13 22.8
2020-Jul-11 01:35 246 7 gusting 12 22.8
2020-Jul-11 01:30 228 4 gusting 11 22.8
2020-Jul-11 01:25 223 6 gusting 13 22.8
2020-Jul-11 01:20 264 4 gusting 10 22.8
2020-Jul-11 01:15 188 4 gusting 13 22.8
2020-Jul-11 01:10 241 4 gusting 13 22.8
2020-Jul-11 01:05 254 6 gusting 13 22.8
2020-Jul-11 01:00 218 10 gusting 12 22.8
2020-Jul-11 00:55 240 4 gusting 14 22.8
2020-Jul-11 00:50 231 2 gusting 13 22.8
2020-Jul-11 00:45 238 3 gusting 12 22.8
2020-Jul-11 00:40 252 6 gusting 13 22.8
2020-Jul-11 00:35 260 6 gusting 15 22.8
2020-Jul-11 00:30 223 6 gusting 13 22.8
2020-Jul-11 00:25 268 4 gusting 10 22.8
2020-Jul-11 00:20 215 5 gusting 9 22.8
2020-Jul-11 00:15 219 7 gusting 11 23.3
2020-Jul-11 00:10 235 6 gusting 12 23.3
2020-Jul-11 00:05 237 6 gusting 13 23.3
2020-Jul-11 00:00 241 4 gusting 10 23.3
2020-Jul-10 23:55 236 4 gusting 9 23.3
2020-Jul-10 23:50 229 6 gusting 10 23.3
2020-Jul-10 23:45 260 4 gusting 10 23.3
2020-Jul-10 23:40 257 6 gusting 10 23.3
2020-Jul-10 23:35 223 2 gusting 7 23.3
2020-Jul-10 23:30 278 7 gusting 10 23.3
2020-Jul-10 23:25 240 4 gusting 9 23.3
2020-Jul-10 23:20 246 7 gusting 7 23.3
2020-Jul-10 23:15 280 2 gusting 9 23.3
2020-Jul-10 23:10 257 4 gusting 9 23.9
2020-Jul-10 23:05 219 4 gusting 9 23.9
2020-Jul-10 23:00 215 0 gusting 9 23.9
2020-Jul-10 22:55 237 1 gusting 8 23.9
2020-Jul-10 22:50 280 3 gusting 6 23.3
2020-Jul-10 22:45 278 0 gusting 6 23.9
2020-Jul-10 22:40 262 3 gusting 8 23.3
2020-Jul-10 22:35 271 1 gusting 6 23.3
2020-Jul-10 22:30 276 3 gusting 7 23.3
2020-Jul-10 22:25 254 4 gusting 6 23.3
2020-Jul-10 22:20 292 4 gusting 7 23.3
2020-Jul-10 22:15 270 4 gusting 7 23.3
2020-Jul-10 22:10 253 23.9
2020-Jul-10 22:05 304 4 gusting 8 23.3
2020-Jul-10 22:00 309 6 gusting 8 23.9
2020-Jul-10 21:55 342 4 gusting 9 23.3
2020-Jul-10 21:50 018 4 gusting 9 23.3
2020-Jul-10 21:45 304 2 gusting 6 23.3
2020-Jul-10 21:40 348 4 gusting 7 23.3
2020-Jul-10 21:35 303 1 gusting 7 23.3
2020-Jul-10 21:30 340 23.3
2020-Jul-10 21:25 332 2 gusting 6 23.3
2020-Jul-10 21:20 301 4 gusting 5 23.3
2020-Jul-10 21:15 319 2 gusting 4 23.3
2020-Jul-10 21:10 348 4 gusting 6 23.3
2020-Jul-10 21:05 326 3 gusting 5 23.3
2020-Jul-10 21:00 015 23.3
2020-Jul-10 20:55 003 4 gusting 7 23.3
2020-Jul-10 20:50 028 1 gusting 5 23.3
2020-Jul-10 20:45 022 1 gusting 6 23.3
2020-Jul-10 20:40 021 2 gusting 6 23.3
2020-Jul-10 20:35 23.3
2020-Jul-10 20:30 022 4 gusting 8 23.3
2020-Jul-10 20:25 025 1 gusting 9 23.3
2020-Jul-10 20:20 020 6 gusting 8 23.3
2020-Jul-10 20:15 038 4 gusting 8 23.3
2020-Jul-10 20:10 059 6 gusting 7 23.3
2020-Jul-10 20:05 022 6 gusting 9 23.3
2020-Jul-10 20:00 039 2 gusting 6 23.3
2020-Jul-10 19:55 063 4 gusting 8 23.3
2020-Jul-10 19:50 070 4 gusting 9 22.8
2020-Jul-10 19:45 053 6 gusting 9 23.3
2020-Jul-10 19:40 101 2 gusting 9 22.8
2020-Jul-10 19:35 099 3 gusting 10 22.8
2020-Jul-10 19:30 089 2 gusting 9 23.3
2020-Jul-10 19:25 111 4 gusting 9 22.8
2020-Jul-10 19:20 042 4 gusting 6 23.3
2020-Jul-10 19:15 122 1 gusting 13 23.3
2020-Jul-10 19:10 043 22.8
2020-Jul-10 19:05 051 0 gusting 13 22.8
2020-Jul-10 19:00 075 10 gusting 12 22.8
2020-Jul-10 18:55 064 3 gusting 12 23.3
2020-Jul-10 18:50 244 22.8
2020-Jul-10 18:45 052 4 gusting 9 23.3
2020-Jul-10 18:40 341 23.3
2020-Jul-10 18:35 074 3 gusting 11 23.3
2020-Jul-10 18:30 036 5 gusting 9 23.3
2020-Jul-10 18:25 079 6 gusting 7 23.3
2020-Jul-10 18:20 077 4 gusting 10 23.3
2020-Jul-10 18:15 061 3 gusting 13 23.3
2020-Jul-10 18:10 071 6 gusting 9 23.3
2020-Jul-10 18:05 015 6 gusting 11 23.3
2020-Jul-10 18:00 078 5 gusting 6 23.3
2020-Jul-10 17:55 036 0 gusting 8 23.3
2020-Jul-10 17:50 039 5 gusting 7 23.3
2020-Jul-10 17:45 088 6 gusting 10 23.3
2020-Jul-10 17:40 079 3 gusting 10 23.9
2020-Jul-10 17:35 050 1 gusting 11 23.9
2020-Jul-10 17:30 344 6 gusting 11 23.9
2020-Jul-10 17:25 079 23.9
2020-Jul-10 17:20 085 23.9
2020-Jul-10 17:15 060 1 gusting 8 23.9
2020-Jul-10 17:10 062 7 gusting 9 23.9
2020-Jul-10 17:05 114 23.9
2020-Jul-10 17:00 251 24.4
2020-Jul-10 16:55 344 24.4
2020-Jul-10 16:50 072 24.4
2020-Jul-10 16:45 012 1 gusting 13 24.4
2020-Jul-10 16:40 076 9 gusting 9 24.4
2020-Jul-10 16:35 059 3 gusting 11 23.9
2020-Jul-10 16:30 041 1 gusting 12 23.9
2020-Jul-10 16:25 122 5 gusting 13 23.3
2020-Jul-10 16:20 077 4 gusting 13 22.8
2020-Jul-10 16:15 063 6 gusting 16 22.8
2020-Jul-10 16:10 088 9 gusting 14 22.8
2020-Jul-10 16:05 054 16 gusting 18 22.8
2020-Jul-10 16:00 053 8 gusting 18 22.8
2020-Jul-10 15:55 058 9 gusting 15 22.8
2020-Jul-10 15:50 073 13 gusting 16 22.8
2020-Jul-10 15:45 069 12 gusting 18 22.8
2020-Jul-10 15:40 044 9 gusting 19 22.8
2020-Jul-10 15:35 053 13 gusting 20 22.8
2020-Jul-10 15:30 056 13 gusting 18 22.8
2020-Jul-10 15:25 087 11 gusting 19 22.8
2020-Jul-10 15:20 049 17 gusting 22 22.8
2020-Jul-10 15:15 064 12 gusting 19 22.8
2020-Jul-10 15:10 055 9 gusting 18 22.8
2020-Jul-10 15:05 049 10 gusting 21 22.8
2020-Jul-10 15:00 062 11 gusting 22 22.8
2020-Jul-10 14:55 060 13 gusting 20 22.8
2020-Jul-10 14:50 054 13 gusting 20 22.8
2020-Jul-10 14:45 049 12 gusting 19 22.2
2020-Jul-10 14:40 091 13 gusting 19 22.8
2020-Jul-10 14:35 079 10 gusting 17 22.2
2020-Jul-10 14:30 051 12 gusting 19 22.2
2020-Jul-10 14:25 058 11 gusting 18 22.2
2020-Jul-10 14:20 052 9 gusting 13 22.2
2020-Jul-10 14:15 085 8 gusting 16 22.8
2020-Jul-10 14:10 120 2 gusting 15 22.8
2020-Jul-10 14:05 045 12 gusting 20 23.3
2020-Jul-10 14:00 057 11 gusting 13 23.3
2020-Jul-10 13:55 075 8 gusting 13 23.3
2020-Jul-10 13:50 042 7 gusting 13 23.3
2020-Jul-10 13:45 053 6 gusting 13 23.3
2020-Jul-10 13:40 062 6 gusting 13 23.3
2020-Jul-10 13:35 068 5 gusting 15 23.3
2020-Jul-10 13:30 351 5 gusting 13 23.3
2020-Jul-10 13:25 045 12 gusting 14 23.3
2020-Jul-10 13:20 054 7 gusting 13 23.3
2020-Jul-10 13:15 077 7 gusting 13 23.3
2020-Jul-10 13:10 083 9 gusting 16 23.3
2020-Jul-10 13:05 071 11 gusting 19 23.3
2020-Jul-10 13:00 074 6 gusting 13 23.3
2020-Jul-10 12:55 077 13 gusting 14 23.3
2020-Jul-10 12:50 090 8 gusting 13 23.3
2020-Jul-10 12:45 072 9 gusting 16 23.3
2020-Jul-10 12:40 066 6 gusting 12 23.9
2020-Jul-10 12:35 057 4 gusting 14 23.9
2020-Jul-10 12:30 058 13 gusting 13 23.9
2020-Jul-10 12:25 051 8 gusting 13 23.9
2020-Jul-10 12:20 061 5 gusting 12 23.9
2020-Jul-10 12:15 072 4 gusting 11 23.9
2020-Jul-10 12:10 064 6 gusting 9 23.9
2020-Jul-10 12:05 089 5 gusting 9 23.9
2020-Jul-10 12:00 064 6 gusting 12 23.9
2020-Jul-10 11:55 045 8 gusting 12 23.3
2020-Jul-10 11:50 052 4 gusting 9 23.9
2020-Jul-10 11:45 036 4 gusting 8 23.3
2020-Jul-10 11:40 055 4 gusting 9 23.9
2020-Jul-10 11:35 047 4 gusting 9 23.9
2020-Jul-10 11:30 066 3 gusting 9 23.3
2020-Jul-10 11:25 064 5 gusting 9 23.3
2020-Jul-10 11:20 067 4 gusting 9 23.9
2020-Jul-10 11:15 066 5 gusting 11 23.3
2020-Jul-10 11:10 055 6 gusting 10 23.3
2020-Jul-10 11:05 065 6 gusting 9 23.3
2020-Jul-10 11:00 069 3 gusting 8 23.3
2020-Jul-10 10:55 030 5 gusting 9 23.3
2020-Jul-10 10:50 086 7 gusting 9 23.3
2020-Jul-10 10:45 056 4 gusting 7 23.3
2020-Jul-10 10:40 060 4 gusting 6 23.3
2020-Jul-10 10:35 066 4 gusting 5 23.3
2020-Jul-10 10:30 087 4 gusting 5 23.3
2020-Jul-10 10:25 068 4 gusting 6 23.3
2020-Jul-10 10:20 061 3 gusting 5 23.3
2020-Jul-10 10:15 070 3 gusting 6 23.3
2020-Jul-10 10:10 057 4 gusting 6 23.3
2020-Jul-10 10:05 057 3 gusting 5 23.3
2020-Jul-10 10:00 073 1 gusting 4 23.3
2020-Jul-10 09:55 060 1 gusting 4 23.3
2020-Jul-10 09:50 036 23.3
2020-Jul-10 09:45 039 1 gusting 4 23.3
2020-Jul-10 09:40 054 0 gusting 4 23.3
2020-Jul-10 09:35 059 2 gusting 3 23.3
2020-Jul-10 09:30 044 23.3
2020-Jul-10 09:25 055 2 gusting 4 23.3
2020-Jul-10 09:20 061 3 gusting 5 23.3
2020-Jul-10 09:15 027 2 gusting 5 23.3
2020-Jul-10 09:10 054 2 gusting 4 23.3
2020-Jul-10 09:05 073 3 gusting 5 23.3
2020-Jul-10 09:00 052 1 gusting 4 23.3
2020-Jul-10 08:55 061 3 gusting 3 23.3
2020-Jul-10 08:50 045 0 gusting 4 23.3
2020-Jul-10 08:45 079 23.3
2020-Jul-10 08:40 045 3 gusting 6 23.3
2020-Jul-10 08:35 051 1 gusting 6 23.3
2020-Jul-10 08:30 066 1 gusting 4 23.3
2020-Jul-10 08:25 066 0 gusting 6 23.3
2020-Jul-10 08:20 057 1 gusting 5 23.3
2020-Jul-10 08:15 053 4 gusting 4 23.3
2020-Jul-10 08:10 068 3 gusting 4 23.3
2020-Jul-10 08:05 052 2 gusting 4 23.3
2020-Jul-10 08:00 047 23.3
2020-Jul-10 07:55 056 1 gusting 4 23.3
2020-Jul-10 07:50 066 23.3
2020-Jul-10 07:45 086 1 gusting 2 23.3
2020-Jul-10 07:40 074 23.3
2020-Jul-10 07:35 054 23.3
2020-Jul-10 07:30 077 2 gusting 3 23.3
2020-Jul-10 07:25 057 23.3
2020-Jul-10 07:20 064 1 gusting 3 23.3
2020-Jul-10 07:15 055 23.3
2020-Jul-10 07:10 081 1 gusting 2 23.3
2020-Jul-10 07:05 068 23.3
2020-Jul-10 07:00 061 23.3
2020-Jul-10 06:55 063 2 gusting 2 23.3
2020-Jul-10 06:50 062 23.3
2020-Jul-10 06:45 063 0 gusting 3 23.3
2020-Jul-10 06:40 031 2 gusting 3 23.3
2020-Jul-10 06:35 078 23.3
2020-Jul-10 06:30 083 1 gusting 4 23.3
2020-Jul-10 06:25 062 1 gusting 4 23.3
2020-Jul-10 06:20 064 23.3
2020-Jul-10 06:15 072 1 gusting 5 23.3
2020-Jul-10 06:10 067 3 gusting 4 23.3
2020-Jul-10 06:05 072 3 gusting 6 23.3
2020-Jul-10 06:00 067 4 gusting 6 23.3
2020-Jul-10 05:55 087 1 gusting 4 23.3
2020-Jul-10 05:50 058 4 gusting 5 23.3
2020-Jul-10 05:45 006 2 gusting 3 23.3
2020-Jul-10 05:40 029 1 gusting 3 23.3
2020-Jul-10 05:35 026 23.3
2020-Jul-10 05:30 035 2 gusting 2 23.3
2020-Jul-10 05:25 030 23.3
2020-Jul-10 05:20 064 23.3
2020-Jul-10 05:15 067 1 gusting 1 23.3
2020-Jul-10 05:10 066 23.3
2020-Jul-10 05:05 058 23.3
2020-Jul-10 05:00 041 23.3
2020-Jul-10 04:55 063 23.3
2020-Jul-10 04:50 059 0 gusting 2 23.3
2020-Jul-10 04:45 048 23.3
2020-Jul-10 04:40 045 23.3
2020-Jul-10 04:35 076 23.3
2020-Jul-10 04:30 059 23.3
2020-Jul-10 04:25 031 23.3
2020-Jul-10 04:20 066 23.3
2020-Jul-10 04:15 292 23.3
2020-Jul-10 04:10 297 23.3
2020-Jul-10 04:05 031 23.3
2020-Jul-10 04:00 208 23.3
2020-Jul-10 03:55 094 23.3
2020-Jul-10 03:50 042 23.3
2020-Jul-10 03:45 065 23.3
2020-Jul-10 03:40 065 23.3
2020-Jul-10 03:35 057 23.3
2020-Jul-10 03:30 064 23.9
2020-Jul-10 03:25 057 2 gusting 3 23.9
2020-Jul-10 03:20 052 2 gusting 2 23.9
2020-Jul-10 03:15 072 23.9
2020-Jul-10 03:10 062 23.9
2020-Jul-10 03:05 064 0 gusting 2 23.9
2020-Jul-10 03:00 068 23.9
2020-Jul-10 02:55 068 23.9
2020-Jul-10 02:50 051 23.9
2020-Jul-10 02:45 072 23.9
2020-Jul-10 02:40 071 23.9
2020-Jul-10 02:35 017 23.9
2020-Jul-10 02:30 056 23.9
2020-Jul-10 02:25 056 23.9
2020-Jul-10 02:20 069 23.9
2020-Jul-10 02:15 032 23.9
2020-Jul-10 02:10 096 23.9
2020-Jul-10 02:05 110 23.9
2020-Jul-10 02:00 110 23.9
2020-Jul-10 01:55 139 23.9
2020-Jul-10 01:50 146 23.9
2020-Jul-10 01:45 146 23.9
2020-Jul-10 01:40 146 23.9
2020-Jul-10 01:35 039 23.9
2020-Jul-10 01:30 078 23.9
2020-Jul-10 01:25 078 23.9
2020-Jul-10 01:20 151 23.9
2020-Jul-10 01:15 151 24.4
2020-Jul-10 01:10 264 24.4
2020-Jul-10 01:05 264 24.4
2020-Jul-10 01:00 264 24.4
2020-Jul-10 00:55 264 24.4
2020-Jul-10 00:50 050 25.0
2020-Jul-10 00:45 025 25.0
2020-Jul-10 00:40 082 25.0
2020-Jul-10 00:35 056 25.0
2020-Jul-10 00:30 230 25.6
2020-Jul-10 00:25 071 25.6
2020-Jul-10 00:20 073 25.6
2020-Jul-10 00:15 086 26.1
2020-Jul-10 00:10 092 26.1
2020-Jul-10 00:05 020 26.1
2020-Jul-10 00:00 092 26.1
2020-Jul-09 23:55 001 26.7
2020-Jul-09 23:50 205 3 gusting 3 26.7
2020-Jul-09 23:45 068 0 gusting 3 26.7
2020-Jul-09 23:40 329 27.2
2020-Jul-09 23:35 180 27.2
2020-Jul-09 23:30 065 27.2
2020-Jul-09 23:25 27.2
2020-Jul-09 23:20 106 27.2
2020-Jul-09 23:15 114 27.2
2020-Jul-09 23:10 048 27.8
2020-Jul-09 23:05 096 3 gusting 5 27.2
2020-Jul-09 23:00 095 0 gusting 5 27.2
2020-Jul-09 22:55 256 27.8
2020-Jul-09 22:50 210 2 gusting 5 27.8
2020-Jul-09 22:45 123 1 gusting 4 27.8
2020-Jul-09 22:40 197 27.8
2020-Jul-09 22:35 166 28.3
2020-Jul-09 22:30 099 1 gusting 4 28.9
2020-Jul-09 22:25 132 1 gusting 4 28.9
2020-Jul-09 22:20 152 3 gusting 4 29.4
2020-Jul-09 22:15 065 28.9
2020-Jul-09 22:10 086 5 gusting 6 28.9
2020-Jul-09 22:05 062 29.4
2020-Jul-09 22:00 122 1 gusting 5 29.4
2020-Jul-09 21:55 290 29.4
2020-Jul-09 21:50 212 29.4
2020-Jul-09 21:45 145 28.9
2020-Jul-09 21:40 133 28.9
2020-Jul-09 21:35 319 29.4
2020-Jul-09 21:30 190 2 gusting 4 30.0
2020-Jul-09 21:25 196 4 gusting 5 30.0
2020-Jul-09 21:20 117 5 gusting 7 30.0
2020-Jul-09 21:15 299 30.0
2020-Jul-09 21:10 076 30.0
2020-Jul-09 21:05 106 30.0
2020-Jul-09 21:00 156 2 gusting 8 30.0
2020-Jul-09 20:55 285 1 gusting 6 30.0
2020-Jul-09 20:50 181 1 gusting 7 30.0
2020-Jul-09 20:45 171 2 gusting 4 30.6
2020-Jul-09 20:40 035 2 gusting 4 30.0
2020-Jul-09 20:35 123 3 gusting 7 29.4
2020-Jul-09 20:30 092 4 gusting 7 30.0
2020-Jul-09 20:25 163 30.0
2020-Jul-09 20:20 054 3 gusting 5 30.6
2020-Jul-09 20:15 031 3 gusting 5 30.6
2020-Jul-09 20:10 207 30.6
2020-Jul-09 20:05 150 2 gusting 5 30.6
2020-Jul-09 20:00 127 0 gusting 4 29.4
2020-Jul-09 19:55 172 1 gusting 4 29.4
2020-Jul-09 19:50 214 0 gusting 4 30.0
2020-Jul-09 19:45 218 4 gusting 4 30.0
2020-Jul-09 19:40 163 2 gusting 6 29.4
2020-Jul-09 19:35 305 3 gusting 6 30.6
2020-Jul-09 19:30 053 4 gusting 9 30.0
2020-Jul-09 19:25 182 3 gusting 5 30.0
2020-Jul-09 19:20 002 0 gusting 4 30.6
2020-Jul-09 19:15 223 31.1
2020-Jul-09 19:10 069 30.6
2020-Jul-09 19:05 210 30.0
2020-Jul-09 19:00 290 31.1
2020-Jul-09 18:55 168 2 gusting 5 30.0
2020-Jul-09 18:50 219 0 gusting 7 30.6
2020-Jul-09 18:45 228 2 gusting 6 30.0
2020-Jul-09 18:40 30.6
2020-Jul-09 18:35 114 1 gusting 6 30.6
2020-Jul-09 18:30 256 30.6
2020-Jul-09 18:25 033 1 gusting 5 30.6
2020-Jul-09 18:20 121 30.0
2020-Jul-09 18:15 028 30.6
2020-Jul-09 18:10 219 31.1
2020-Jul-09 18:05 168 2 gusting 6 31.1
2020-Jul-09 18:00 072 31.1
2020-Jul-09 17:55 151 1 gusting 4 31.1
2020-Jul-09 17:50 130 4 gusting 6 31.1
2020-Jul-09 17:45 091 0 gusting 3 31.7
2020-Jul-09 17:40 170 1 gusting 5 31.1
2020-Jul-09 17:35 100 3 gusting 4 31.1
2020-Jul-09 17:30 040 1 gusting 9 30.6
2020-Jul-09 17:25 139 0 gusting 6 31.1
2020-Jul-09 17:20 110 3 gusting 5 31.1
2020-Jul-09 17:15 122 3 gusting 5 31.1
2020-Jul-09 17:10 043 4 gusting 7 30.6
2020-Jul-09 17:05 111 3 gusting 4 30.6
2020-Jul-09 17:00 058 1 gusting 5 30.6
2020-Jul-09 16:55 164 3 gusting 6 30.6
2020-Jul-09 16:50 218 1 gusting 4 31.1
2020-Jul-09 16:45 161 1 gusting 8 30.0
2020-Jul-09 16:40 183 2 gusting 7 31.1
2020-Jul-09 16:35 108 30.6
2020-Jul-09 16:30 077 2 gusting 6 30.0
2020-Jul-09 16:25 110 2 gusting 7 29.4
2020-Jul-09 16:20 069 3 gusting 6 30.0
2020-Jul-09 16:15 151 30.6
2020-Jul-09 16:10 166 29.4
2020-Jul-09 16:05 114 29.4
2020-Jul-09 16:00 187 29.4
2020-Jul-09 15:55 216 4 gusting 4 30.6
2020-Jul-09 15:50 205 29.4
2020-Jul-09 15:45 094 30.0
2020-Jul-09 15:40 014 29.4
2020-Jul-09 15:35 007 28.9
2020-Jul-09 15:30 067 2 gusting 6 28.9
2020-Jul-09 15:25 061 6 gusting 6 29.4
2020-Jul-09 15:20 047 29.4
2020-Jul-09 15:15 086 2 gusting 6 28.9
2020-Jul-09 15:10 127 28.3
2020-Jul-09 15:05 010 28.3
2020-Jul-09 15:00 015 28.3
2020-Jul-09 14:55 060 28.3
2020-Jul-09 14:50 303 28.3
2020-Jul-09 14:45 057 27.2
2020-Jul-09 14:40 298 1 gusting 5 27.2
2020-Jul-09 14:35 040 1 gusting 6 27.2
2020-Jul-09 14:30 057 4 gusting 6 27.2
2020-Jul-09 14:25 073 27.2
2020-Jul-09 14:20 008 1 gusting 4 26.7
2020-Jul-09 14:15 296 27.2
2020-Jul-09 14:10 001 26.1
2020-Jul-09 14:05 352 2 gusting 4 25.6
2020-Jul-09 14:00 009 25.6